Regional Weather Roundup
Issued by NWS State College, PA

Home | Current Version | Previous Version | Graphics & Text | Print | Product List | Glossary Off
Versions: 1 2 3 4 5 6 7 8 9 10 11 12 13 14 15 16 17 18 19 20 21 22 23 24 25 26 27 28 29 30 31 32 33 34 35 36 37 38 39 40 41 42 43 44 45 46 47 48 49 50

679
ASUS41 KCTP 281503
RWRCTP

REGIONAL WEATHER ROUNDUP
NATIONAL WEATHER SERVICE STATE COLLEGE PA
1100 AM EDT FRI JUL 28 2017

Note: "fair" indicates few or no clouds below 12,000 feet with no
significant weather and/or obstructions to visibility.

* = STATION THAT DOES NOT REPORT PRECIPITATION /E.G. RAIN...SNOW...ETC/
    THUNDER OR FOG.

PAZ002>004-007>009-013>016-020>023-029>032-281600-
WESTERN PENNSYLVANIA

CITY           SKY/WX    TMP DP  RH WIND       PRES   REMARKS
ERIE           PTSUNNY   73  65  75 NE16G23   29.90S
MEADVILLE      CLOUDY    72  66  81 NE10      29.91S
FRANKLIN*      CLOUDY    72  64  78 E6        29.91S
NEW CASTLE     FAIR      75  68  78 N5        29.88S
BEAVER COUNTY  PTSUNNY   75  68  78 CALM      29.88S
BUTLER*        CLOUDY    73  68  83 NE6       29.88S
PITTSBURGH INT CLOUDY    75  70  84 NE5       29.86S
PITTSBURGH     CLOUDY    74  66  76 NE3       29.86S
INDIANA*       CLOUDY    73  68  83 VRB5      29.91S
LATROBE        PTSUNNY   75  70  83 NE6       29.88R
WASHINGTON CO* CLOUDY    75  68  78 NE6       29.86F
$$

PAZ004>006-010>012-017>019-024>028-033>037-041-042-045-046-049>053-281600-
CENTRAL PENNSYLVANIA

CITY           SKY/WX    TMP DP  RH WIND       PRES   REMARKS
BRADFORD       CLOUDY    67  64  90 NE9       29.96S
DUBOIS         CLOUDY    71  64  78 E8        29.91S
CLEARFIELD     CLOUDY    73  67  81 E8        29.91S
JOHNSTOWN      CLOUDY    73  66  78 E6        29.91S
ALTOONA        CLOUDY    74  68  81 NE6       29.90S
STATE COLLEGE  CLOUDY    72  68  88 NE7       29.90S FOG
WILLIAMSPORT   CLOUDY    76  68  76 VRB3      29.87S
SELINSGROVE    CLOUDY    77  70  79 VRB5      29.88S
FT INDIANTOWN  PTSUNNY   75  70  83 NE5       29.87R
CAPITAL CITY   CLOUDY    79  70  74 VRB7      29.86R HAZE
HARRISBURG     PTSUNNY   78  72  81 NE7       29.85R HAZE
YORK           MOSUNNY   80  73  79 E8        29.85S
$$

PAZ038>040-043-044-047-048-054-055-060>062-067>071-281600-
EASTERN PENNSYLVANIA

CITY           SKY/WX    TMP DP  RH WIND       PRES   REMARKS
SCRANTON       CLOUDY    78  65  63 N7        29.90S
MOUNT POCONO   CLOUDY    74  63  68 E8        29.93S
ALLENTOWN      MOSUNNY   81  67  62 E10       29.87S
QUAKERTOWN*    MOSUNNY   79  68  69 NE5       29.88R
READING        CLOUDY    78  72  81 N8        29.85S HAZE
LANCASTER      PTSUNNY   79  72  79 E8        29.86R
COATESVILLE    CLOUDY    77  70  78 VRB6G16   29.89R
POTTSTOWN      MOSUNNY   77  71  82 VRB3      29.88S
BLUE BELL      MOSUNNY   77  70  78 E6        29.87S
DOYLESTOWN       N/A     78  69  73 CALM      29.86S
WILLOW GROVE   NOT AVBL
NORTH PHILA    PTSUNNY   81  70  69 NE7       29.87R
PHILADELPHIA   PTSUNNY   81  70  69 NE6       29.85S
$$




USA.gov is the U.S. government's official web portal to all federal, state and local government web resources and services.